Truckee, CA

11:43 PM PST on January 20, 2017 (GMT -0800)
Truckee-Tahoe

Weather History for KTRK - October, 2012

Change the Weather History Date:

Saturday, October 6, 2012

  Actual Average Record
Temperature  
Mean Temperature 47 °F -  
Max Temperature 68 °F 69 °F 85 °F (1987)
Min Temperature 26 °F 31 °F 17 °F (2007)
Degree Days  
Heating Degree Days 18    
Moisture  
Dew Point 29 °F    
Average Humidity 69    
Maximum Humidity 93    
Minimum Humidity 16    
Precipitation  
Precipitation 0.00 in - - ()
Sea Level Pressure  
Sea Level Pressure 30.18 in    
Wind  
Wind Speed 1 mph (SSW)    
Max Wind Speed 17 mph    
Max Gust Speed 22 mph    
Visibility 10 miles    
Events      
Averages and records for this station are not official NWS values.
T = Trace of Precipitation, MM = Missing Value Source: NWS Daily Summary

Daily Weather History Graph

Daily Weather History Graph

Search for Another Location

Airport or City:

Trip Planner

Search our weather history database for the weather conditions in past years. The results will help you decide how hot, cold, wet, or windy it might be!

Date:

Astronomy

Oct. 06, 2012 Rise Set
Actual Time 7:02 AM PDT 6:34 PM PDT
Civil Twilight 6:35 AM PDT 7:01 PM PDT
Nautical Twilight 6:04 AM PDT 7:32 PM PDT
Astronomical Twilight 5:32 AM PDT 8:03 PM PDT
Moon 10:56 PM PDT (10/6) 12:58 PM PDT (10/6)
Length of Visible Light 12h 25m
Length of Day
11h 32m
Waning Gibbous, 64% of the Moon is Illuminated
Oct 6
Waning Gibbous
Oct 8
Last Quarter
Oct 15
New
Oct 21
First Quarter
Oct 29
Full

Hourly Weather History & Observations

Time (PDT) Temp. Windchill Dew Point Humidity Pressure Visibility Wind Dir Wind Speed Gust Speed Precip Events Conditions
12:15 AM 37.4 °F - 28.4 °F 70% 30.23 in 10.0 mi Calm Calm - N/A   Clear
12:35 AM 33.8 °F - 28.4 °F 81% 30.23 in 10.0 mi Calm Calm - N/A   Clear
12:55 AM 35.6 °F - 26.6 °F 70% 30.23 in 10.0 mi Calm Calm - N/A   Clear
1:15 AM 33.8 °F - 24.8 °F 70% 30.23 in 10.0 mi Calm Calm - N/A   Clear
1:35 AM 35.6 °F - 26.6 °F 70% 30.23 in 10.0 mi Calm Calm - N/A   Clear
1:55 AM 32.0 °F - 28.4 °F 87% 30.24 in 10.0 mi Calm Calm - N/A   Clear
2:15 AM 33.8 °F - 28.4 °F 81% 30.23 in 10.0 mi Calm Calm - N/A   Clear
2:35 AM 32.0 °F - 26.6 °F 80% 30.23 in 10.0 mi Calm Calm - N/A   Clear
2:55 AM 32.0 °F - 26.6 °F 80% 30.23 in 10.0 mi Calm Calm - N/A   Clear
3:15 AM 28.4 °F 24.6 °F 24.8 °F 86% 30.22 in 10.0 mi SSE 3.5 mph - N/A   Clear
3:35 AM 30.2 °F - 26.6 °F 86% 30.22 in 10.0 mi Calm Calm - N/A   Clear
3:55 AM 32.0 °F - 26.6 °F 80% 30.22 in 10.0 mi Calm Calm - N/A   Clear
4:15 AM 32.0 °F - 26.6 °F 80% 30.21 in 10.0 mi Calm Calm - N/A   Clear
4:35 AM 28.4 °F - 26.6 °F 93% 30.21 in 10.0 mi Calm Calm - N/A   Clear
4:55 AM 30.2 °F - 26.6 °F 86% 30.21 in 10.0 mi Calm Calm - N/A   Clear
5:15 AM 28.4 °F - 24.8 °F 86% 30.21 in 10.0 mi Calm Calm - N/A   Clear
5:35 AM 28.4 °F - 26.6 °F 93% 30.22 in 10.0 mi Calm Calm - N/A   Clear
5:55 AM 28.4 °F - 26.6 °F 93% 30.22 in 10.0 mi Calm Calm - N/A   Clear
6:15 AM 26.6 °F - 24.8 °F 93% 30.22 in 10.0 mi Calm Calm - N/A   Clear
6:35 AM 28.4 °F - 26.6 °F 93% 30.22 in 10.0 mi Calm Calm - N/A   Clear
6:45 AM 28.4 °F - 26.6 °F 93% 30.22 in 10.0 mi Calm Calm - N/A   Scattered Clouds
7:45 AM 28.4 °F - 26.6 °F 93% 30.22 in 10.0 mi Calm Calm - N/A   Scattered Clouds
8:50 AM 37.4 °F - 28.4 °F 70% 30.22 in 10.0 mi Calm Calm - N/A   Clear
9:55 AM 46.4 °F - 30.2 °F 53% 30.21 in 10.0 mi Calm Calm - N/A   Partly Cloudy
10:55 AM 55.4 °F - 28.4 °F 36% 30.19 in 10.0 mi Calm Calm - N/A   Scattered Clouds
11:55 AM 62.6 °F - 28.4 °F 27% 30.17 in 10.0 mi West 3.5 mph - N/A   Scattered Clouds
1:55 PM 64.4 °F - 23.0 °F 21% 30.15 in 10.0 mi ENE 3.5 mph - N/A   Scattered Clouds
2:55 PM 68.0 °F - 19.4 °F 16% 30.11 in 10.0 mi SW 4.6 mph - N/A   Scattered Clouds
5:45 PM 59.0 °F - 37.4 °F 45% 30.12 in 10.0 mi West 17.3 mph 21.9 mph N/A   Scattered Clouds
5:55 PM 59.0 °F - 37.4 °F 45% 30.12 in 10.0 mi West 10.4 mph 16.1 mph N/A   Clear
6:15 PM 57.2 °F - 35.6 °F 44% 30.12 in 10.0 mi West 12.7 mph 17.3 mph N/A   Clear
6:35 PM 55.4 °F - 35.6 °F 47% 30.13 in 10.0 mi WSW 9.2 mph - N/A   Clear
6:55 PM 55.4 °F - 35.6 °F 47% 30.13 in 10.0 mi West 5.8 mph - N/A   Clear
7:15 PM 53.6 °F - 35.6 °F 51% 30.13 in 10.0 mi WSW 3.5 mph - N/A   Clear
7:35 PM 50.0 °F - 33.8 °F 54% 30.13 in 10.0 mi SE 3.5 mph - N/A   Clear
7:55 PM 48.2 °F - 33.8 °F 58% 30.13 in 10.0 mi South 4.6 mph - N/A   Clear
8:15 PM 48.2 °F - 35.6 °F 62% 30.13 in 10.0 mi Calm Calm - N/A   Clear
8:35 PM 44.6 °F - 33.8 °F 66% 30.14 in 10.0 mi Calm Calm - N/A   Clear
8:55 PM 46.4 °F 45.2 °F 33.8 °F 62% 30.14 in 10.0 mi South 3.5 mph - N/A   Clear
9:15 PM 42.8 °F 40.1 °F 32.0 °F 66% 30.15 in 10.0 mi SSE 4.6 mph - N/A   Clear
9:35 PM 41.0 °F 38.0 °F 32.0 °F 70% 30.14 in 10.0 mi South 4.6 mph - N/A   Clear
9:55 PM 41.0 °F - 33.8 °F 76% 30.15 in 10.0 mi Calm Calm - N/A   Clear
10:15 PM 44.6 °F - 33.8 °F 66% 30.15 in 10.0 mi Calm Calm - N/A   Clear
10:35 PM 37.4 °F 33.8 °F 28.4 °F 70% 30.15 in 10.0 mi SSE 4.6 mph - N/A   Clear
10:55 PM 35.6 °F - 30.2 °F 81% 30.15 in 10.0 mi Calm Calm - N/A   Clear
11:15 PM 39.2 °F 37.0 °F 32.0 °F 75% 30.15 in 10.0 mi ESE 3.5 mph - N/A   Clear
11:35 PM 35.6 °F 31.7 °F 30.2 °F 81% 30.15 in 10.0 mi South 4.6 mph - N/A   Clear
11:55 PM 35.6 °F - 32.0 °F 87% 30.15 in 10.0 mi Calm Calm - N/A   Clear